Simultaneous Nadir Overpasses (SNOs) Predictions

Prediction of SNOs between LANDSAT-8 and NOAA-19 Satellite Orbit:

Table of predicted SNOs for the next 14.0 days since TLE Epoch: 4/4/2015
Index Date (LANDSAT-8) Time (LANDSAT-8) Lat,Lon (LANDSAT-8) SZA (LANDSAT-8 ) Date (NOAA-19) Time (NOAA-19) Lat,Lon (NOAA-19) SZA (NOAA-19 ) Distance(km) Time Diff (sec)
1 04/05/2015 07:09:05 -73.51,-105.45 112.57 04/05/2015 07:07:56 -73.57,-107.45 112.50 63.57 69
2 04/05/2015 07:58:40 73.00, 61.16 66.91 04/05/2015 07:58:42 73.00, 61.14 66.91 0.99 2
3 04/07/2015 12:42:58 73.07, -9.80 66.15 04/07/2015 12:42:09 73.04, -9.78 66.12 3.41 49
4 04/07/2015 13:32:28 -72.95, 157.61 113.98 04/07/2015 13:33:13 -72.96, 157.61 113.97 1.31 45
5 04/09/2015 18:16:48 -73.02, 86.64 114.74 04/09/2015 18:16:40 -73.00, 86.70 114.75 2.30 8
6 04/09/2015 19:06:20 72.66,-106.40 64.89 04/09/2015 19:07:30 72.65,-105.27 64.89 37.59 70
7 04/11/2015 23:01:10 -73.07, 15.65 115.50 04/11/2015 23:00:08 -73.10, 15.65 115.46 3.45 62
8 04/11/2015 23:50:37 72.98,-176.88 64.41 04/11/2015 23:51:03 73.01,-176.87 64.43 2.92 26
9 04/14/2015 04:35:00 73.08, 112.21 63.71 04/14/2015 04:34:30 73.08, 112.15 63.70 2.00 30
10 04/14/2015 05:24:30 -72.98, -80.37 116.41 04/14/2015 05:25:34 -72.98, -80.40 116.41 1.20 64
11 04/16/2015 09:19:16 73.65, 42.26 63.50 04/16/2015 09:18:08 73.70, 39.87 63.54 74.83 68
12 04/16/2015 10:08:56 -73.02,-151.40 117.15 04/16/2015 10:09:01 -73.05,-151.39 117.12 3.26 5




NCC Satellite Simultaneous Nadir Overpasses (SNOs) Prediction Service
